Torna al catalogo

FENGYUN 1C DEB

AttivoSSO
NORAD 31783·DEBRIS·🇨🇳 China

Lanciato May 10, 1999 da Taiyuan Satellite Launch Center

Loading…

Prossimi Passaggi (prossime 24 ore)

TLE

AggiornatoSource: Space-Track

Epoca: Sep 13, 2026, 19:14 UTC

1 31783U 99025CGJ 26256.80186704  .00000474  00000-0  28218-3 0  9991
2 31783  98.6078 258.1989 0102681 349.4297 188.9252 14.09299652930947

Traccia FENGYUN 1C DEB in tempo reale con AllMySat

Download on the App Store